Regional Weather Roundup
Issued by NWS

Home | Current Version | Previous Version | Text Only | Print | Product List | Glossary On
Versions: 1 2 3 4 5 6 7 8 9 10 11 12 13 14 15 16 17 18 19 20 21 22 23 24 25 26 27 28
000
ASUS46 KSEW 230210
RWRWA

WASHINGTON REGIONAL WEATHER ROUNDUP
NATIONAL WEATHER SERVICE SEATTLE WA
600 PM PST MON JAN 22 2018

NOTE:"FAIR" INDICATES FEW OR NO CLOUDS BELOW 12,000 FEET WITH NO
SIGNIFICANT WEATHER AND/OR OBSTRUCTIONS TO VISIBILITY.

WAZ507-509-555>559-230300-
SEATTLE, TACOMA, EVERETT, AND VICINITY

CITY           SKY/WX    TMP DP  RH WIND       PRES   REMARKS
EVERETT        PTCLDY    42  37  82 SE8       30.27F
BOEING FIELD   MOCLDY    44  38  79 SE8       30.28F
RENTON         CLEAR     45  36  70 S7        30.28F
SEATAC AIRPORT PTCLDY    42  36  79 S8        30.28F
JBLM-MCCHORD   PTCLDY    39  39 100 SE5       30.28F
PUYALLUP       CLOUDY    37  37 100 CALM      30.28F
BREMERTON      PTCLDY    39  38  96 SE3       30.27F
JBLM-FT LEWIS  PTCLDY    39  39 100 SE3       30.28F
TACOMA NARROWS PTCLDY    40  39  97 S5        30.28F
$$

WAZ001-503-506-510-514-515-230300-
NORTH INTERIOR

CITY           SKY/WX    TMP DP  RH WIND       PRES   REMARKS
BELLINGHAM     PTCLDY    42  39  89 SE7       30.26S
FRIDAY HARBOR  PTCLDY    42  38  85 E3        30.26F
EASTSOUND      CLOUDY    45  39  81 S3        30.26F
PORT ANGELES   MOCLDY    37  37 100 CALM      30.25F
EDIZ HOOK      FAIR      42  38  88 CALM      30.25F
PORT TOWNSEND  FAIR      37  37 100 CALM      30.26F
NAS WHIDBEY    MOCLDY    44  38  79 SE8       30.30F
ARLINGTON      CLOUDY    44  38  79 SE8       30.28F
BURLINGTON     MOCLDY    43  39  87 SE6       30.27F
$$

WAZ020-022-039-040-504-511-512-230300-
SOUTHWEST INTERIOR

CITY           SKY/WX    TMP DP  RH WIND       PRES   REMARKS
SHELTON        FOG       40  39  97 CALM      30.25F VSB 1/2
OLYMPIA        FOG       35  35 100 SW3       30.29S VSB 1
CHEHALIS       CLOUDY    45  41  87 S5        30.29F
KELSO          MOCLDY    44  42  93 CALM      30.32S
VANCOUVER      MOCLDY    44  42  93 SE5       30.31S
SCAPPOOSE, OR  MOCLDY    42  41  96 CALM      30.31R
PORTLAND, OR   MOCLDY    42  40  92 E8        30.32S
$$

WAZ021-516-517-230300-
WASHINGTON COAST

CITY           SKY/WX    TMP DP  RH WIND       PRES   REMARKS
FORKS          CLOUDY    41  39  93 CALM      30.24R
HOQUIAM        MOCLDY    44  42  93 NE5       30.27S
ASTORIA, OR    MOCLDY    44  40  85 SE5       30.27F
$$

WAZ019-023-024-040-567>569-230300-
CASCADE MOUNTAINS AND COLUMBIA GORGE

CITY           SKY/WX    TMP DP  RH WIND       PRES   REMARKS
STAMPEDE PASS  CLOUDY    30  28  92 VRB6      30.16S FOG
TROUTDALE, OR  MOCLDY    42  42 100 CALM      30.32F
HOOD RIVER, OR CLOUDY    41  37  87 S3        30.31S
THE DALLES, OR CLOUDY    45  39  79 NW8       30.31S
$$

WAZ026-027-041>044-520-521-230300-
EAST SLOPES

CITY           SKY/WX    TMP DP  RH WIND       PRES   REMARKS
OMAK           PTCLDY    30  28  92 N3        30.22R
WENATCHEE      PTCLDY    36  30  79 NE3       30.22R
ELLENSBURG     NOT AVBL
YAKIMA         PTCLDY    45  26  47 N6        30.24R
SUNNYSIDE ARPT PTCLDY    38  28  69 E3        30.27S
YAKIMA TC      FAIR      38  28  65 E7        30.23R
$$

WAZ028-034-035-230300-
COLUMBIA BASIN

CITY           SKY/WX    TMP DP  RH WIND       PRES   REMARKS
EPHRATA        PTCLDY    36  24  62 SW12      30.23R
MOSES LAKE     MOCLDY    40  28  62 W14       30.24R
PASCO          PTCLDY    43  34  70 SW7       30.29R
RICHLAND ARPT  PTCLDY    46  35  65 SW9       30.29R
HERMISTON, OR  PTCLDY    42  35  76 S8        30.30R
$$

WAZ036>038-230300-
NORTHEAST WASHINGTON

CITY           SKY/WX    TMP DP  RH WIND       PRES   REMARKS
SPOKANE GEIGER PTCLDY    35  31  85 S6        30.21R
SPOKANE FELTS  PTCLDY    37  31  78 SW5       30.23R
FAIRCHILD AFB  CLEAR     34  34 100 SW5       30.19S
COEURDALENE,ID MOCLDY    35  31  85 SW8       30.21S
DEER PARK      CLEAR     34  30  85 SE5       30.21R
$$

WAZ029>033-230300-
SOUTHEAST WASHINGTON

CITY           SKY/WX    TMP DP  RH WIND       PRES   REMARKS
PULLMAN        PTCLDY    36  31  82 W7        30.26R
LEWISTON, ID   PTCLDY    41  31  67 SE3       30.28R
WALLA WALLA    PTCLDY    43  33  68 S5        30.29R
PENDLETON, OR  PTCLDY    38  32  79 W8        30.28S
$$




USA.gov is the U.S. government's official web portal to all federal, state and local government web resources and services.